GW5833 Weather Reports


time (UTC)temp
C
wind
direction
speed
KPH
gust
KPH
rain 1hr
cm
rain 24hr
cm
rain mn
cm
humidity
%
barometer
mb
20260506165516 12 106 4.8 17.7 0.00 0.00 0.00 42 1017.9
20260506165011 12 34 6.4 14.5 0.00 0.00 0.00 41 1017.6
20260506164508 12 45 6.4 14.5 0.00 0.00 0.00 42 1017.7
20260506164006 12 77 1.6 14.5 0.00 0.00 0.00 42 1017.5
20260506163501 12 51 3.2 11.3 0.00 0.00 0.00 41 1017.7
20260506162955 12 58 3.2 17.7 0.00 0.00 0.00 43 1017.6
20260506162454 12 71 4.8 14.5 0.00 0.00 0.00 43 1017.7
20260506161951 11 16 3.2 17.7 0.00 0.00 0.00 45 1017.9
20260506161449 11 55 8.0 14.5 0.00 0.00 0.00 45 1018.1
20260506160946 11 92 11.3 14.5 0.00 0.00 0.00 45 1017.7
20260506160443 11 72 6.4 12.9 0.00 0.00 0.00 47 1018.0
20260506155940 11 75 3.2 14.5 0.00 0.00 0.00 47 1017.6
20260506155438 11 50 9.7 11.3 0.00 0.00 0.00 47 1017.9
20260506153605 10 132 6.4 12.9 0.00 0.00 0.00 49 1018.0
20260506153102 10 71 6.4 14.5 0.00 0.00 0.00 49 1018.1
20260506152559 10 87 8.0 9.7 0.00 0.00 0.00 49 1018.1
20260506152057 10 66 6.4 12.9 0.00 0.00 0.00 49 1018.0
20260506151555 10 65 17.7 19.3 0.00 0.00 0.00 49 1018.0
20260506151052 10 61 9.7 11.3 0.00 0.00 0.00 50 1017.7
20260506150548 10 110 11.3 17.7 0.00 0.00 0.00 49 1018.0
20260506150045 10 66 9.7 14.5 0.00 0.00 0.00 50 1017.7
20260506145541 10 60 12.9 19.3 0.00 0.00 0.00 49 1017.9
20260506145039 10 95 3.2 11.3 0.00 0.00 0.00 50 1018.1
20260506144536 9 86 3.2 16.1 0.00 0.00 0.00 52 1018.2
20260506144033 9 73 11.3 12.9 0.00 0.00 0.00 53 1018.0
20260506143531 9 102 3.2 8.0 0.00 0.00 0.00 54 1018.2
20260506143029 9 53 11.3 11.3 0.00 0.00 0.00 54 1017.9
20260506142526 9 6 3.2 11.3 0.00 0.00 0.00 54 1018.0
20260506142024 8 8 3.2 8.0 0.00 0.00 0.00 55 1018.2
20260506141522 8 315 9.7 20.9 0.00 0.00 0.00 56 1018.2
20260506141020 7 238 3.2 16.1 0.00 0.00 0.00 59 1018.2
20260506140517 7 22 4.8 8.0 0.00 0.00 0.00 60 1018.1
20260506140014 7 43 3.2 11.3 0.00 0.00 0.00 61 1018.2
20260506135511 6 334 6.4 8.0 0.00 0.00 0.00 62 1018.1
20260506135007 6 60 4.8 9.7 0.00 0.00 0.00 62 1018.1
20260506134504 6 288 3.2 6.4 0.00 0.00 0.00 62 1018.1
20260506134000 6 58 1.6 8.0 0.00 0.00 0.00 63 1017.9
20260506133457 6 41 8.0 9.7 0.00 0.00 0.00 62 1017.9
20260506132954 6 81 3.2 9.7 0.00 0.00 0.00 62 1017.7
20260506132451 6 51 1.6 9.7 0.00 0.00 0.00 62 1017.6
20260506131948 6 67 6.4 9.7 0.00 0.00 0.00 62 1018.1
20260506131445 6 54 3.2 9.7 0.00 0.00 0.00 63 1017.6
20260506130942 6 340 0.0 4.8 0.00 0.00 0.00 63 1018.0
20260506130438 6 39 9.7 14.5 0.00 0.00 0.00 63 1018.0
20260506125936 6 29 6.4 9.7 0.00 0.00 0.00 63 1017.5
20260506125434 6 50 4.8 11.3 0.00 0.00 0.00 64 1017.5
20260506124932 6 37 9.7 9.7 0.00 0.00 0.00 64 1017.6
20260506124429 6 73 6.4 9.7 0.00 0.00 0.00 64 1017.6
20260506123927 6 52 9.7 11.3 0.00 0.00 0.00 64 1017.4
20260506123425 6 21 4.8 12.9 0.00 0.00 0.00 64 1017.3
20260506122922 6 70 8.0 12.9 0.00 0.00 0.00 63 1017.3
20260506122419 6 55 16.1 19.3 0.00 0.00 0.00 63 1017.0
20260506121917 6 317 6.4 17.7 0.00 0.00 0.00 63 1017.3
20260506121414 6 317 9.7 11.3 0.00 0.00 0.00 63 1016.6
20260506120911 6 321 8.0 11.3 0.00 0.00 0.00 63 1016.7
20260506120408 6 313 4.8 9.7 0.00 0.00 0.00 63 1016.9
20260506115906 6 63 8.0 14.5 0.00 0.00 0.00 63 1016.8
20260506115404 6 49 3.2 9.7 0.00 0.00 0.00 63 1016.8
20260506114902 6 44 6.4 6.4 0.00 0.00 0.00 63 1016.8
20260506114359 6 7 3.2 6.4 0.00 0.00 0.00 64 1016.7
20260506113858 6 37 1.6 9.7 0.00 0.00 0.00 63 1016.9
20260506113354 6 337 1.6 9.7 0.00 0.00 0.00 63 1016.9
20260506112851 6 80 1.6 4.8 0.00 0.00 0.00 63 1016.7
20260506112348 6 76 0.0 4.8 0.00 0.00 0.00 63 1016.7
20260506111845 6 2 3.2 4.8 0.00 0.00 0.00 64 1016.7
20260506111344 6 263 1.6 4.8 0.00 0.00 0.00 64 1016.9
20260506110841 6 357 3.2 3.2 0.00 0.00 0.00 64 1016.8
20260506110338 6 350 3.2 4.8 0.00 0.00 0.00 64 1016.8
20260506105835 6 69 1.6 3.2 0.00 0.00 0.00 65 1016.6
20260506105331 6 68 3.2 3.2 0.00 0.00 0.00 64 1016.4
20260506104829 6 317 1.6 6.4 0.00 0.00 0.00 64 1016.3
20260506104326 6 324 3.2 4.8 0.00 0.00 0.00 63 1016.4
20260506103824 6 71 3.2 3.2 0.00 0.00 0.00 63 1016.6
20260506103321 7 67 6.4 9.7 0.00 0.00 0.00 62 1016.4
20260506102819 7 49 0.0 6.4 0.00 0.00 0.00 63 1016.3
20260506102316 7 66 3.2 4.8 0.00 0.00 0.00 63 1016.3
20260506101813 6 330 3.2 3.2 0.00 0.00 0.00 64 1016.1
20260506101309 6 329 4.8 6.4 0.00 0.00 0.00 65 1016.2
20260506100807 6 8 3.2 9.7 0.00 0.00 0.00 65 1015.8
20260506100305 7 55 6.4 8.0 0.00 0.00 0.00 64 1016.2
20260506095804 7 67 3.2 4.8 0.00 0.00 0.00 65 1016.0
20260506095300 7 75 4.8 9.7 0.00 0.00 0.00 65 1016.1
20260506094756 7 56 3.2 9.7 0.00 0.00 0.00 66 1016.0
20260506094255 7 323 0.0 9.7 0.00 0.00 0.00 66 1016.1
20260506093753 7 328 6.4 6.4 0.00 0.00 0.00 67 1016.1
20260506093250 7 69 4.8 4.8 0.00 0.00 0.00 67 1016.1
20260506092748 7 343 0.0 3.2 0.00 0.00 0.00 67 1016.1
20260506092246 7 77 3.2 4.8 0.00 0.00 0.00 65 1016.2
20260506091743 7 89 3.2 9.7 0.00 0.00 0.00 65 1016.0
20260506091240 7 92 0.0 8.0 0.00 0.00 0.00 66 1016.1
20260506090738 7 321 3.2 6.4 0.00 0.00 0.00 67 1016.0
20260506090235 7 71 1.6 6.4 0.00 0.00 0.00 66 1015.8
20260506085731 7 33 3.2 8.0 0.00 0.00 0.00 66 1016.1
20260506085228 8 56 3.2 6.4 0.00 0.00 0.00 65 1015.8
20260506084724 8 82 3.2 9.7 0.00 0.00 0.00 65 1016.1
20260506084220 8 108 8.0 14.5 0.00 0.00 0.00 63 1015.6
20260506083718 8 66 6.4 8.0 0.00 0.00 0.00 62 1016.0
20260506083216 8 133 3.2 6.4 0.00 0.00 0.00 61 1016.0
20260506082713 8 84 3.2 4.8 0.00 0.00 0.00 59 1015.8
20260506082208 8 266 1.6 1.6 0.00 0.00 0.00 59 1016.0
20260506081706 8 302 0.0 4.8 0.00 0.00 0.00 61 1016.1
20260506081203 8 207 3.2 4.8 0.00 0.00 0.00 60 1016.2
20260506080701 8 189 3.2 4.8 0.00 0.00 0.00 59 1016.1
20260506080157 8 212 0.0 3.2 0.00 0.00 0.00 59 1016.0
20260506073141 9 224 3.2 3.2 0.00 0.00 0.00 59 1016.4
20260506072638 9 202 3.2 3.2 0.00 0.00 0.00 60 1016.1
20260506072136 9 247 4.8 4.8 0.00 0.00 0.00 58 1016.3
20260506071633 9 187 3.2 3.2 0.00 0.00 0.00 58 1016.3
20260506071131 9 254 3.2 6.4 0.00 0.00 0.00 58 1016.2
20260506070628 10 200 0.0 4.8 0.00 0.00 0.00 58 1016.4
20260506070125 10 195 3.2 4.8 0.00 0.00 0.00 59 1016.3
20260506062103 10 223 11.3 11.3 0.00 0.00 0.00 58 1016.2
20260506061558 10 190 3.2 6.4 0.00 0.00 0.00 58 1016.0
20260506061056 10 247 6.4 9.7 0.00 0.00 0.00 57 1016.1
20260506060554 10 234 3.2 9.7 0.00 0.00 0.00 55 1015.8
20260506051017 10 223 3.2 9.7 0.00 0.10 0.10 60 1015.8
20260506050515 10 210 1.6 8.0 0.00 0.10 0.10 59 1015.8
20260506045005 10 251 8.0 14.5 0.00 0.10 0.10 59 1015.8
20260506044503 10 231 9.7 14.5 0.00 0.10 0.10 59 1015.7
20260506043959 10 230 9.7 9.7 0.00 0.10 0.10 60 1015.8
20260506043456 10 231 6.4 17.7 0.00 0.10 0.10 59 1016.1
20260506042954 10 221 6.4 19.3 0.00 0.10 0.10 58 1016.0
20260506042449 10 201 4.8 11.3 0.00 0.10 0.10 58 1015.7
20260506041946 10 285 8.0 19.3 0.00 0.10 0.10 58 1015.6
20260506041444 10 233 6.4 12.9 0.00 0.10 0.10 59 1015.2
20260506040941 10 236 9.7 17.7 0.00 0.10 0.10 60 1015.5
20260506040438 10 226 6.4 16.1 0.00 0.10 0.10 61 1015.7
20260506035934 10 185 4.8 16.1 0.00 0.10 0.10 61 1015.2
20260506035432 10 224 8.0 11.3 0.00 0.10 0.10 62 1015.2
20260506034928 10 228 8.0 14.5 0.00 0.10 0.10 62 1015.2
20260506034426 10 220 12.9 17.7 0.00 0.10 0.10 62 1014.9
20260506033923 10 209 11.3 17.7 0.00 0.10 0.10 62 1015.2
20260506033420 10 242 3.2 11.3 0.00 0.10 0.10 63 1015.2
20260506032917 10 179 3.2 19.3 0.00 0.10 0.10 62 1014.6
20260506032414 10 201 4.8 12.9 0.00 0.10 0.10 62 1014.6
20260506031910 10 217 16.1 17.7 0.00 0.10 0.10 62 1014.6
20260506031408 10 204 6.4 29.0 0.00 0.10 0.10 62 1014.6
20260506030905 10 6 3.2 17.7 0.00 0.10 0.10 63 1014.8
20260506030403 10 255 12.9 22.5 0.00 0.10 0.10 63 1014.4
20260506025900 10 212 6.4 20.9 0.00 0.10 0.10 63 1014.5
20260506025356 10 221 9.7 20.9 0.00 0.10 0.10 63 1014.4
20260506024854 10 242 6.4 27.4 0.00 0.10 0.10 63 1014.3
20260506024351 10 207 6.4 19.3 0.00 0.10 0.10 62 1014.0
20260506023846 11 219 9.7 25.7 0.00 0.10 0.10 61 1013.8
20260506023343 11 198 11.3 22.5 0.00 0.10 0.10 60 1013.7
20260506022840 11 230 11.3 27.4 0.00 0.10 0.10 58 1013.6
20260506022338 12 215 17.7 20.9 0.00 0.10 0.10 55 1013.8
20260506021836 12 185 3.2 3.2 0.00 0.10 0.10 57 1013.1
20260506021332 12 164 0.0 1.6 0.00 0.10 0.10 58 1013.1
20260506020829 12 124 0.0 0.0 0.00 0.10 0.10 57 1013.0
20260506020327 12 124 0.0 1.6 0.00 0.10 0.10 56 1012.6
20260506015824 12 150 0.0 3.2 0.00 0.10 0.10 53 1012.4
20260506015322 12 124 0.0 6.4 0.00 0.10 0.10 52 1012.1
20260506014818 13 113 3.2 3.2 0.00 0.10 0.10 52 1012.5
20260506014315 13 85 1.6 6.4 0.00 0.10 0.10 50 1012.4
20260506013812 13 139 0.0 4.8 0.00 0.10 0.10 53 1012.3
20260506013309 13 28 1.6 3.2 0.00 0.10 0.10 52 1012.4
20260506012806 13 131 3.2 3.2 0.00 0.10 0.10 53 1012.0
20260506012307 13 183 3.2 3.2 0.00 0.10 0.10 52 1012.1
20260506011800 14 162 3.2 6.4 0.00 0.10 0.10 50 1012.0
20260506011256 14 130 3.2 8.0 0.00 0.10 0.10 49 1012.0
20260506010754 14 99 3.2 8.0 0.00 0.10 0.10 47 1012.1
20260506010252 14 36 6.4 6.4 0.00 0.10 0.10 47 1012.0
20260506005749 14 180 4.8 8.0 0.00 0.10 0.10 51 1012.5
20260506005245 13 122 3.2 3.2 0.00 0.10 0.10 51 1012.4
20260506004741 13 126 0.0 3.2 0.00 0.10 0.10 52 1012.1
20260506004239 13 55 0.0 0.0 0.00 0.10 0.10 51 1012.0
20260506003735 13 73 1.6 3.2 0.00 0.10 0.10 50 1012.1
20260506003231 13 275 0.0 3.2 0.00 0.10 0.10 50 1012.3
20260506002727 13 130 0.0 3.2 0.00 0.10 0.10 50 1012.3
20260506002224 13 142 0.0 3.2 0.00 0.10 0.10 49 1012.5
20260506001720 14 214 3.2 3.2 0.00 0.10 0.10 49 1012.1
20260506001217 14 205 3.2 8.0 0.00 0.10 0.10 49 1011.9
20260506000714 14 95 6.4 9.7 0.00 0.10 0.10 48 1011.9
20260506000212 14 43 4.8 8.0 0.00 0.10 0.10 48 1012.0
20260505235709 15 26 8.0 12.9 0.00 0.10 0.10 46 1012.1
20260505235207 15 177 3.2 6.4 0.00 0.10 0.10 48 1011.9
20260505234703 15 20 4.8 9.7 0.00 0.10 0.10 47 1011.9
20260505234200 16 327 3.2 9.7 0.00 0.10 0.10 44 1011.9
20260505233657 15 57 3.2 4.8 0.00 0.10 0.10 48 1012.0
20260505233155 15 188 3.2 4.8 0.00 0.10 0.10 49 1012.1
20260505232652 14 284 8.0 9.7 0.00 0.10 0.10 51 1011.9
20260505232149 14 214 4.8 4.8 0.00 0.10 0.10 52 1012.3
20260505231645 14 172 3.2 4.8 0.00 0.10 0.10 51 1012.7
20260505231144 15 107 11.3 14.5 0.00 0.10 0.10 49 1012.7
20260505230637 15 21 0.0 4.8 0.00 0.10 0.10 50 1012.5
20260505230133 14 151 3.2 3.2 0.00 0.10 0.10 49 1012.3
20260505225629 15 243 3.2 6.4 0.00 0.10 0.10 48 1012.6
20260505225125 14 163 3.2 6.4 0.00 0.10 0.10 58 1012.3
20260505224622 13 228 4.8 8.0 0.00 0.10 0.10 55 1012.4
20260505224120 13 55 1.6 4.8 0.00 0.10 0.10 56 1012.5
20260505223617 13 200 1.6 3.2 0.00 0.10 0.10 64 1012.5
20260505223113 13 217 8.0 8.0 0.00 0.10 0.10 68 1012.7
20260505222610 12 207 0.0 6.4 0.00 0.10 0.10 71 1012.8
20260505222106 12 50 3.2 6.4 0.00 0.10 0.10 75 1013.2
20260505221603 11 56 6.4 6.4 0.13 0.10 0.10 73 1013.6
20260505221059 11 61 6.4 6.4 0.23 0.10 0.10 75 1013.6
20260505220556 11 135 0.0 3.2 0.30 0.10 0.10 75 1013.8
20260505220054 11 109 1.6 8.0 0.23 0.05 0.05 73 1013.6
20260505215552 12 131 0.0 17.7 0.00 0.03 0.03 65 1013.7
20260505215050 12 79 8.0 16.1 0.00 0.03 0.03 61 1013.2
20260505214548 12 69 8.0 19.3 0.00 0.03 0.03 59 1013.6
20260505214044 13 88 8.0 22.5 0.00 0.03 0.03 56 1013.3
20260505213542 14 102 9.7 14.5 0.00 0.03 0.03 56 1013.4
20260505213038 15 112 4.8 6.4 0.00 0.03 0.03 50 1013.2
20260505212535 15 114 9.7 17.7 0.00 0.03 0.03 48 1013.2
20260505212032 15 46 4.8 14.5 0.00 0.03 0.03 48 1013.4
20260505211529 15 111 4.8 8.0 0.00 0.03 0.03 50 1013.1
20260505211025 15 108 4.8 11.3 0.00 0.03 0.03 50 1013.2
20260505210522 15 132 1.6 4.8 0.00 0.03 0.03 49 1013.2
20260505210020 15 75 3.2 14.5 0.00 0.03 0.03 48 1013.2
20260505205518 16 93 11.3 14.5 0.00 0.03 0.03 46 1013.3
20260505205014 17 257 1.6 9.7 0.00 0.03 0.03 46 1013.3
20260505204512 16 197 3.2 9.7 0.00 0.03 0.03 45 1013.0
20260505204009 16 95 0.0 16.1 0.00 0.03 0.03 46 1013.6
20260505203506 16 287 3.2 11.3 0.00 0.03 0.03 47 1013.6
20260505203003 16 122 3.2 6.4 0.00 0.03 0.03 49 1013.9
20260505202459 15 111 3.2 6.4 0.00 0.03 0.03 51 1013.7
20260505201954 15 317 3.2 6.4 0.00 0.03 0.03 50 1013.9
20260505201452 15 249 9.7 11.3 0.00 0.03 0.03 49 1013.6
20260505200949 15 192 4.8 9.7 0.00 0.03 0.03 49 1013.7
20260505200447 14 21 1.6 8.0 0.00 0.03 0.03 55 1013.9
20260505195943 13 257 0.0 6.4 0.00 0.03 0.03 59 1013.6
20260505195440 13 128 6.4 6.4 0.00 0.03 0.03 59 1013.9
20260505194937 13 256 0.0 3.2 0.00 0.03 0.03 58 1014.3
20260505194435 13 79 3.2 6.4 0.00 0.03 0.03 59 1014.0
20260505193934 13 121 3.2 6.4 0.00 0.03 0.03 61 1014.0
20260505193432 13 282 3.2 6.4 0.00 0.03 0.03 62 1013.9
20260505192930 13 109 3.2 9.7 0.00 0.03 0.03 62 1014.2
20260505192428 12 128 4.8 6.4 0.00 0.03 0.03 69 1014.0
20260505191925 12 228 3.2 6.4 0.00 0.03 0.03 66 1014.4
20260505191424 12 136 3.2 6.4 0.00 0.03 0.03 67 1014.4
20260505190920 12 89 3.2 6.4 0.00 0.03 0.03 72 1014.4
20260505190416 11 130 6.4 9.7 0.05 0.03 0.03 70 1014.4
20260505185911 11 120 4.8 6.4 0.13 0.03 0.03 76 1014.4
20260505185409 11 140 4.8 9.7 0.05 0.00 0.00 72 1014.3
20260505184904 11 138 8.0 12.9 0.00 0.00 0.00 69 1014.3
20260505184401 11 98 3.2 9.7 0.00 0.00 0.00 66 1014.4
20260505183859 12 129 8.0 17.7 0.00 0.00 0.00 61 1014.3
20260505183355 12 109 8.0 17.7 0.00 0.00 0.00 58 1014.4
20260505182852 13 126 4.8 17.7 0.00 0.00 0.00 54 1014.2
20260505182349 13 92 4.8 17.7 0.00 0.00 0.00 51 1014.4
20260505181846 14 99 8.0 9.7 0.00 0.00 0.00 50 1014.0
20260505181343 14 110 0.0 9.7 0.00 0.00 0.00 49 1014.0
20260505180839 14 54 11.3 22.5 0.00 0.00 0.00 48 1014.0
20260505180336 14 98 3.2 8.0 0.00 0.00 0.00 47 1013.9
20260505175832 15 65 11.3 14.5 0.00 0.00 0.00 46 1014.0
20260505175329 15 202 0.0 11.3 0.00 0.00 0.00 46 1013.9
20260505174825 15 142 11.3 16.1 0.00 0.00 0.00 46 1014.0
20260505174323 16 100 6.4 19.3 0.00 0.00 0.00 42 1014.0
20260505173819 16 181 1.6 9.7 0.00 0.00 0.00 43 1013.9
20260505173316 16 122 6.4 14.5 0.00 0.00 0.00 43 1014.2
20260505172813 15 212 3.2 6.4 0.00 0.00 0.00 45 1014.3
20260505172310 15 112 3.2 8.0 0.00 0.00 0.00 44 1014.0
20260505171804 15 172 1.6 6.4 0.00 0.00 0.00 45 1014.3
20260505171302 14 147 3.2 6.4 0.00 0.00 0.00 46 1014.0
20260505170758 13 74 3.2 8.0 0.00 0.00 0.00 48 1014.2
20260505170255 12 105 6.4 12.9 0.00 0.00 0.00 50 1014.8
20260505165755 12 104 8.0 9.7 0.00 0.00 0.00 50 1014.2